Location: Borojevi?i
(45.0486°N, 16.2297°E)
Time: 03:53:31
(UTC+00:00)

NOSS 3-2 (C) - Pass Details

Date: 08 August 2020
Orbit: 800 x 1413 km, 63.4° (Epoch: 15 September)

Event Time Altitude Azimuth Distance (km) Brightness Sun altitude
Exits shadow 19:48:32 21° 113° (ESE) 1,887 4.4 -15.2°
Maximum altitude 19:48:50 21° 108° (ESE) 1,890 4.5 -15.2°
Drops below altitude 10° 19:53:15 10° 62° (ENE) 2,677 5.6 -15.8°
Sets 19:56:35 0° 48° (NE) 3,737 6.5 -16.2°
